Location: *
(54.3203°N, 45.0097°E)
Time: 17:20:18
(UTC+00:00)

Daily predictions for brighter satellites

Satellite Brightness Start Highest point End
(mag) Time Altitude Azimuth Time Altitude Azimuth Time Altitude Azimuth
Cosmos 2151 3.1 18:08:06 10° S 18:12:24 88° WNW 18:16:45 10° N
Aureole 1 4.4 18:09:51 10° NNW 18:12:58 79° WSW 18:16:37 10° SSE
SPOT 5 3.0 18:08:57 10° SSE 18:14:01 73° ENE 18:18:50 10° NNW
Cosmos 1933 3.6 18:10:16 10° N 18:14:18 56° ENE 18:18:18 10° SSE
Cosmos 2084 3.6 18:11:24 10° SW 18:15:55 90° SSE 18:20:19 10° NE
Cosmos 1743 Rocket 3.9 18:13:09 10° SSE 18:17:20 46° E 18:21:31 10° NNE
CZ-2C R/B 2.6 18:13:48 10° NNE 18:19:04 66° ESE 18:24:13 10° S
Cosmos 1606 3.3 18:16:13 10° N 18:19:51 42° ENE 18:23:26 10° SE
Cosmos 1515 Rocket 3.7 18:17:06 10° NNW 18:21:30 80° W 18:25:50 10° S
Cosmos 2026 Rocket 4.4 18:15:56 10° N 18:21:50 50° ENE 18:27:45 10° SSE
Gbstr 26 Del rocket 3.2 18:22:27 10° SW 18:26:01 35° SSE 18:29:28 10° E
H-2A R/B 4.4 18:23:08 10° SW 18:27:13 21° W 18:31:17 10° NW
Cosmos 2322 Rocket 2.2 18:22:49 10° SSW 18:28:30 73° ESE 18:34:12 10° NE
Cosmos 1766 Rocket 4.2 18:24:44 10° SSW 18:29:00 57° WNW 18:33:18 10° N
IGS 5A 3.6 18:25:00 10° S 18:29:10 76° WSW 18:33:22 10° NNW
ASTEX 1 4.4 18:24:44 10° NNE 18:29:13 32° E 18:33:39 10° SSE
USA 245 3.9 18:28:16 10° SSW 18:30:11 25° W 18:32:09 10° NW
Cosmos 2219 Rocket 3.8 18:27:03 10° SE 18:30:34 17° E 18:34:06 10° ENE
Cosmos 2278 Rocket 3.3 18:25:40 10° NNW 18:30:56 37° NE 18:36:10 10° ESE
Cosmos 2333 Rocket 3.8 18:28:50 10° SE 18:32:26 17° E 18:36:01 10° ENE
Cosmos 1408 2.8 18:29:09 10° S 18:32:48 57° E 18:36:29 10° NNE
SL-16 R/B 2.2 18:27:57 10° SSW 18:33:38 85° ESE 18:39:21 10° NE
Helios 1A 4.4 18:32:36 10° ESE 18:36:10 28° ENE 18:39:44 10° N
SL-8 R/B 4.4 18:32:16 10° W 18:36:39 36° SSW 18:41:00 10° SE
ATLAS 5 CENTAUR R/B 3.8 18:32:26 10° WNW 18:36:58 32° N 18:42:06 10° ENE
Cosmos 1408 Rocket 3.9 18:32:42 10° SSW 18:36:59 67° WNW 18:41:19 10° N
Cosmos 1238 Rocket 4.5 18:30:59 10° SSW 18:37:37 72° WNW 18:44:08 10° N
Landsat 7 4.4 18:36:30 10° S 18:41:10 56° W 18:45:53 10° NNW
Lacrosse 5 2.4 18:36:14 10° W 18:41:17 64° N 18:46:20 10° E
Cosmos 2228 Rocket 3.4 18:36:46 10° NNW 18:41:19 72° W 18:45:51 10° S
Cosmos 1805 Rocket 4.4 18:38:49 10° SSE 18:42:43 34° E 18:46:38 10° NNE
USA 81 4.1 18:37:30 10° N 18:42:50 78° E 18:48:06 10° S
Thor Agena Rocket 3.5 18:38:35 10° NNE 18:43:40 75° ESE 18:48:43 10° SSW
Cosmos 2322 4.4 18:39:51 10° S 18:44:56 36° ESE 18:50:03 10° NE
Cosmos 1844 Rocket 2.8 18:42:20 10° NW 18:48:03 76° WSW 18:53:25 11° SSE
Cosmos 1825 2.2 18:44:28 10° S 18:48:11 64° E 18:51:57 10° NNE
USA 229 DEB 4.2 18:42:23 10° S 18:48:21 37° ESE 18:54:35 10° NE
USA 229 4.2 18:42:30 10° S 18:48:28 37° ESE 18:54:41 10° NE
ISS -2.5 18:47:14 10° SSW 18:49:50 21° SSE 18:52:27 10° E
Resurs 01 Rocket 4.3 18:47:45 10° WSW 18:49:53 13° W 18:52:00 10° WNW
EO 1 Del DPAF 3.8 18:47:03 10° N 18:50:48 58° WNW 18:54:32 10° SSW
Cosmos 2263 Rocket 4.2 18:47:16 10° NW 18:51:29 22° WSW 18:55:41 10° SSW
MOS 1 Rocket 3.6 18:47:36 10° NNE 18:51:51 45° E 18:56:13 10° S
Cosmos 407 Rocket 3.8 18:46:45 10° S 18:51:52 50° ESE 18:57:02 10° NE
Cosmos 1140 Rocket 4.2 18:48:39 10° SSE 18:53:19 35° ESE 18:58:02 10° NE
Cosmos 2251 Rocket 4.5 18:48:52 10° SW 18:53:59 51° NW 18:59:07 10° NNE
Cosmos 1190 Rocket 4.3 18:51:48 10° S 18:56:47 49° ESE 19:01:49 10° NE
CARTOSAT-1 4.3 18:55:39 10° S 18:59:51 50° W 19:04:05 10° NNW
IRAS Rocket 4.3 18:55:32 12° SSE 19:00:48 85° ENE 19:06:29 10° NNW
ADEOS Rocket 4.3 18:55:47 10° N 19:01:08 39° WNW 19:06:13 10° SW
Cosmos 292 Rocket 4.0 18:56:39 10° NNW 19:01:29 67° WSW 19:05:48 13° SSE
ALOS 2 4.3 18:58:03 10° ESE 19:01:33 24° ENE 19:05:04 10° N
Lacrosse 5 rocket 2.0 18:58:05 10° WNW 19:02:43 66° N 19:07:15 10° E
Cosmos 1356 Rocket 4.2 18:58:45 10° NNW 19:02:55 51° W 19:07:05 10° S
Mayak 0.1 18:59:25 10° NE 19:02:59 25° E 19:05:45 14° SE
ERS-1 Rocket 4.1 18:58:46 10° SSW 19:03:28 38° W 19:08:11 10° NNW
Cosmos 2237 4.3 19:00:23 10° SSW 19:05:58 63° ESE 19:11:37 10° NE
Cosmos 1633 Rocket 4.2 19:03:19 14° SE 19:06:21 28° E 19:10:04 10° NNE
NOSS 5 (C) 4.3 19:02:52 10° SW 19:06:26 59° SE 19:09:27 10° NE
Cosmos 614 Rocket 4.0 19:03:56 10° S 19:08:53 58° ESE 19:13:54 10° NNE
USA 215 3.4 19:03:34 10° ENE 19:10:09 80° NNW 19:16:43 10° W
Terra 2.3 19:05:34 10° S 19:10:15 56° W 19:14:58 10° NNW
Cosmos 1862 Rocket 4.4 19:09:35 10° N 19:13:38 37° ENE 19:16:59 14° SE
Cosmos 1782 2.8 19:13:06 10° N 19:17:11 84° E 19:20:20 16° SSE
Cosmos 1900 4.4 19:12:10 10° SSW 19:17:18 70° SE 19:22:26 10° NE
Landsat 4 3.7 19:14:16 10° NNE 19:18:01 84° WNW 19:21:44 10° SSW
Spot 4 4.0 19:15:07 15° SSE 19:19:04 65° ENE 19:23:49 10° N
Helios 1B rocket 4.2 19:17:02 10° NE 19:19:59 18° E 19:22:09 13° SE
ATLAS CENTAUR R/B 2.2 19:15:21 10° NW 19:20:11 58° NE 19:24:42 10° ESE
SeaSat 1 4.1 19:16:58 10° ENE 19:20:17 18° ESE 19:22:30 14° SE
Cosmos 44 Rocket 3.4 19:16:29 10° SW 19:21:37 86° NW 19:26:39 10° NE
Cosmos 1763 Rocket 4.3 19:16:57 10° NNW 19:21:54 44° NE 19:26:39 11° SE
SL-4 R/B 3.4 19:18:14 10° SSW 19:22:08 25° SE 19:25:57 10° E
Cosmos 468 Rocket 4.5 19:17:23 10° NNW 19:22:34 55° ENE 19:27:08 13° SE
CENTAUR R/B 4.2 19:16:09 10° WNW 19:22:46 42° N 19:30:19 10° ENE
Cosmos 1844 4.1 19:18:49 10° NW 19:24:15 53° WSW 19:28:52 15° S
COSMOS 2428 3.3 19:19:43 13° S 19:24:29 40° ESE 19:29:49 10° NE
ATLAS 3B R/B 4.2 19:20:01 10° WNW 19:26:10 37° N 19:32:19 10° ENE
Cosmos 1400 Rocket 4.2 19:22:43 10° N 19:26:27 30° ENE 19:29:34 13° SE
Sich 1 3.1 19:23:22 15° S 19:26:50 62° E 19:31:05 10° NNE
Meteor 2-6 Rocket 4.2 19:21:53 10° NNW 19:27:20 77° ENE 19:31:45 16° SSE
Cosmos 2279 Rocket 4.1 19:22:43 13° S 19:28:13 64° E 19:34:21 10° NNE
SL-19 R/B 3.9 19:25:18 10° NNE 19:28:45 59° ESE 19:30:52 18° S
Cosmos 1862 4.4 19:26:48 17° SE 19:29:12 30° E 19:32:43 10° NNE
Cosmos 1818 3.9 19:25:12 10° NW 19:30:33 56° SW 19:34:41 17° SSE
Cosmos 2084 Rocket 4.1 19:28:14 10° WNW 19:32:24 42° SW 19:35:14 18° SSE
Cosmos 1812 4.0 19:29:03 10° N 19:32:32 30° ENE 19:35:13 15° SE
ERS-2 3.8 19:39:18 11° ESE 19:42:08 25° ENE 19:45:12 10° N
Cosmos 2360 Rocket 2.5 19:37:07 10° SW 19:42:45 72° NW 19:48:25 10° NNE
Cosmos 2237 Rocket 3.4 19:41:01 16° SE 19:44:02 25° ESE 19:48:32 10° NE
SL-24 R/B - RUBIN 2 4.4 19:40:44 10° NW 19:46:15 73° NE 19:52:23 10° SE
Cosmos 1570 Rocket 4.2 19:41:03 10° NNW 19:46:17 66° ENE 19:50:27 16° SE
Cosmos 1707 Rocket 4.3 19:50:22 10° NNW 19:54:38 47° W 19:58:02 15° SSW
Meteor 1-27 Rocket 3.9 19:50:25 10° NNW 19:56:18 76° ENE 20:00:46 18° SSE
Cosmos 1867 4.4 19:55:10 19° SSE 19:58:13 31° ESE 20:03:01 10° ENE
Nimbus 7 Rocket 4.4 19:55:23 10° NNE 20:01:20 73° ESE 20:06:15 16° S
NOSS 3-1 (C) 3.4 19:55:49 10° SW 20:01:32 70° SE 20:08:14 10° NE
Cosmos 1655 Rocket 4.2 19:58:25 10° NNW 20:04:39 66° W 20:09:36 16° S
Cosmos 676 Rocket 4.1 20:02:04 10° SSW 20:07:18 81° WNW 20:12:37 10° NNE
Cosmos 2297 4.3 20:02:00 10° NNW 20:07:34 55° NE 20:12:54 11° SE
Cosmos 1814 Rocket 4.3 20:02:45 10° NNW 20:07:52 60° ENE 20:11:58 16° SE
ASTEX 1 4.3 20:03:37 10° N 20:08:23 45° WNW 20:13:08 10° SSW
Helios 1A 3.8 20:08:48 18° SSW 20:11:35 43° W 20:15:36 10° NNW
NOSS 0 Rocket 4.3 20:07:33 18° S 20:11:52 47° ESE 20:17:44 10° NE
Cosmos 2333 4.3 20:06:39 10° SW 20:12:23 82° WNW 20:18:05 10° NNE
Gbstr 26 Del rocket 2.6 20:08:44 10° WSW 20:12:27 60° S 20:16:13 10° E
Cosmos 2322 Rocket 4.0 20:07:56 10° WSW 20:13:04 33° NW 20:18:13 10° NNE
Cosmos 2219 Rocket 2.2 20:08:15 11° SSW 20:13:40 79° ESE 20:19:21 10° NE
Cosmos 2278 Rocket 2.4 20:09:46 10° NW 20:15:22 62° WSW 20:19:15 20° S
Cosmos 1741 Rocket 4.2 20:12:14 20° S 20:15:43 53° ESE 20:20:49 10° NNE
Cosmos 2333 Rocket 2.2 20:10:24 11° SSW 20:15:50 79° ESE 20:21:34 10° NE
SL-16 R/B 4.2 20:13:30 10° W 20:18:25 29° NW 20:23:22 10° NNE
Cosmos 2242 Rocket 3.7 20:15:22 10° NNW 20:19:54 77° W 20:22:48 22° S
Cosmos 1633 2.4 20:18:33 25° S 20:20:32 83° E 20:24:08 10° NNE
Cosmos 1943 Rocket 3.8 20:17:26 10° NNW 20:22:18 30° NE 20:27:09 10° E
ATLAS 5 CENTAUR R/B 2.9 20:17:22 10° NW 20:22:37 54° NNE 20:28:41 10° ESE
Cosmos 1954 Rocket 4.3 20:17:29 10° SW 20:22:43 69° WNW 20:28:01 10° NNE
YAOGAN 11 4.4 20:21:43 21° S 20:24:22 55° WSW 20:28:39 10° NNW
Lacrosse 5 1.8 20:19:25 10° WNW 20:24:30 85° SSW 20:29:36 10° ESE
ISS -3.6 20:22:50 10° WSW 20:26:04 48° S 20:29:18 10° E
Cosmos 1850 Rocket 4.1 20:23:22 19° S 20:27:13 68° ESE 20:32:34 10° NNE
Cosmos 1703 Rocket 3.7 20:23:07 10° N 20:27:34 72° ENE 20:30:21 23° SSE
BREEZE-M DEB (TANK) 3.1 20:25:10 10° WSW 20:28:02 43° S 20:36:09 10° ESE
Cosmos 2322 4.4 20:23:23 10° SW 20:28:56 56° NW 20:34:34 10° NNE
Cosmos 192 4.4 20:26:03 10° NNW 20:31:01 77° ENE 20:34:33 19° SSE
Cosmos 1140 Rocket 4.4 20:30:01 10° SW 20:35:01 48° NW 20:40:05 10° NNE
Spot 1 4.5 20:32:03 22° SSE 20:35:29 80° WSW 20:40:30 10° NNW
ALOS 2 2.9 20:34:57 23° S 20:37:35 58° W 20:41:57 10° NNW
Mayak -0.3 20:34:42 10° N 20:38:47 46° WNW 20:42:20 13° SW
USA 229 DEB 3.9 20:32:11 10° WSW 20:38:53 76° NW 20:45:58 10° NE
USA 229 3.9 20:32:16 10° WSW 20:38:59 76° NW 20:46:04 10° NE
NOSS 3-1 (A) 3.4 20:36:03 10° SW 20:41:50 81° SE 20:48:40 10° NE
Lacrosse 5 rocket 1.5 20:37:29 10° WNW 20:42:03 63° SSW 20:45:38 15° SE
Cosmos 2369 Rocket 3.6 20:36:53 10° NNW 20:42:13 37° NE 20:47:30 10° ESE
Cosmos 540 Rocket 3.5 20:37:32 10° NNW 20:42:41 81° ENE 20:46:24 19° SSE
Cosmos 1933 Rocket 3.5 20:39:56 22° SSW 20:42:44 86° W 20:47:10 10° N
GP-B 3.4 20:38:46 10° N 20:43:09 60° W 20:46:04 20° SSW
Cosmos 1633 Rocket 4.1 20:40:23 13° SW 20:44:01 40° WNW 20:48:09 10° N
Cosmos 1437 3.7 20:43:34 25° SE 20:44:34 32° E 20:47:22 10° NNE
Okean 1-7 3.0 20:44:41 10° NNW 20:49:00 88° WSW 20:51:30 25° S
USA 215 3.5 20:46:32 10° E 20:53:03 73° N 20:59:35 10° WNW
NOSS 2-3 (E) 3.9 20:49:55 18° SSW 20:53:16 63° SE 20:58:48 10° NE
Cosmos 841 Rocket 3.5 20:50:19 10° NNW 20:55:27 67° WSW 20:58:42 22° S
Helios 1B rocket 2.8 20:51:33 10° N 20:55:39 63° WNW 20:58:29 19° SSW
NOSS 2-3 (D) 3.9 20:52:45 19° SSW 20:56:00 63° SE 21:01:31 10° NE
H-2A R/B 4.4 20:54:15 10° ESE 20:57:34 21° NE 21:00:54 10° N
SeaSat 1 2.4 20:53:29 10° NNE 20:58:28 84° ESE 21:02:15 18° SSW
Cosmos 1315 Rocket 2.7 20:54:36 10° NNW 20:58:35 83° WSW 21:00:42 26° S
ATLAS CENTAUR R/B 2.5 20:54:41 10° WNW 20:59:00 34° WSW 21:00:58 23° SSW
Cosmos 1470 Rocket 4.3 20:57:12 17° SW 21:00:21 48° WNW 21:04:38 10° N
SL-4 R/B 2.4 20:56:39 10° WSW 21:01:20 53° SSE 21:05:48 10° E
Lacrosse 4 Rocket 2.7 21:00:40 21° SSE 21:02:28 28° ESE 21:06:16 10° NE
NOSS 3-2 (A) 4.2 20:55:51 10° NW 21:02:57 71° NE 21:11:02 10° ESE
Cosmos 1400 Rocket 3.9 20:59:10 10° NNW 21:02:58 35° W 21:05:11 20° SSW
Cosmos 1763 Rocket 4.3 20:58:56 10° NW 21:03:42 39° WSW 21:06:40 21° SSW
Cosmos 1869 Rocket 3.7 21:04:16 24° S 21:06:47 66° E 21:11:09 10° NNE
Meteor 1-29 3.4 21:04:25 10° N 21:07:50 56° WNW 21:09:46 23° SW
Cosmos 1812 4.0 21:04:54 10° NNW 21:08:19 30° W 21:10:18 19° SW
COSMOS 2428 3.5 21:03:07 10° SW 21:08:41 51° NW 21:14:18 10° NNE
COSMOS 2455 3.2 21:05:18 21° S 21:09:04 49° ESE 21:14:52 10° NE
SL-16 R/B 2.8 21:06:15 21° SSE 21:09:34 42° ESE 21:14:52 10° NE
Cosmos 1553 Rocket 4.2 21:08:27 20° SSE 21:12:38 59° E 21:18:38 10° NNE
CENTAUR R/B 3.7 21:07:34 10° NW 21:14:54 57° NNE 21:23:10 10° ESE
Meteor 2-19 Rocket 4.5 21:09:08 10° NNW 21:15:19 80° W 21:19:41 21° S
ERS-2 2.9 21:13:57 25° SSW 21:15:36 39° W 21:19:06 10° NNW
CZ-4 R/B 3.8 21:11:20 10° NNE 21:16:02 85° WNW 21:19:08 22° SSW
ATLAS 3B R/B 3.4 21:11:33 10° NW 21:18:05 55° NNE 21:24:40 10° ESE
SL-16 R/B 3.8 21:13:46 10° ESE 21:19:23 37° ENE 21:24:59 10° N
Cosmos 1980 3.8 21:15:06 15° SW 21:19:55 79° NW 21:25:39 10° NNE
Meteor 1-19 Rocket 4.2 21:20:31 10° NNW 21:26:03 79° ENE 21:30:08 18° SSE
Cosmos 2237 Rocket 2.3 21:22:49 15° SW 21:27:35 75° NW 21:33:15 10° NNE
Cosmos 2360 Rocket 4.4 21:23:13 10° W 21:27:45 24° NNW 21:32:17 10° NNE
USA 238 DEB 3.8 21:20:37 10° NW 21:27:46 88° SW 21:35:08 10° SE
USA 238 3.8 21:20:43 10° NW 21:27:52 88° SW 21:35:14 10° SE
Cosmos 2098 Rocket 3.9 21:25:34 10° N 21:28:38 29° ENE 21:30:50 14° SE
DELTA 2 DEB (DPAF) 4.2 21:25:57 23° S 21:28:39 70° WSW 21:33:09 10° NNW
ATLAS 2AS CENTAUR R/B 4.4 21:29:37 13° SSE 21:34:46 25° ESE 21:40:58 10° ENE
Meteor 1-14 Rocket 4.4 21:31:51 21° S 21:35:53 76° E 21:41:50 10° NNE
NOSS 2-3 (C) 4.1 21:33:58 10° SW 21:38:37 77° NW 21:44:29 10° NE
Meteor 1-18 Rocket 4.4 21:33:43 10° NNW 21:39:17 62° W 21:43:01 21° S
Cosmos 1674 Rocket 3.9 21:35:08 10° N 21:39:36 62° ENE 21:42:56 17° SSE
Cosmos 1745 Rocket 4.0 21:33:42 10° NNW 21:40:04 82° W 21:44:45 19° S
Cosmos 1867 3.8 21:36:01 10° SW 21:41:29 71° NW 21:47:00 10° NE
CZ-4B R/B 4.1 21:36:54 10° NNE 21:41:49 47° E 21:45:08 19° SSE
CZ-4C R/B 3.7 21:41:44 23° S 21:44:21 64° WSW 21:48:47 10° NNW
Cosmos 1733 Rocket 3.4 21:44:37 21° SSE 21:47:24 56° E 21:51:44 10° NNE
Meteor 1-25 Rocket 4.3 21:44:15 20° SSW 21:48:11 74° WNW 21:53:48 10° NNE
Cosmos 2297 4.5 21:46:28 10° NW 21:51:35 36° WSW 21:54:48 20° SSW
Cosmos 1602 3.7 21:49:58 25° S 21:52:12 90° ESE 21:56:09 10° NNE
Cosmos 1515 3.7 21:52:53 10° N 21:56:43 79° ENE 21:59:13 20° SSE
Cosmos 1378 Rocket 3.8 21:52:28 10° N 21:56:48 64° ENE 22:00:12 16° SSE
BREEZE M DEB (TANK) 4.2 21:54:03 21° S 21:56:52 37° SE 22:09:21 10° ENE
Cosmos 2219 Rocket 3.9 21:53:12 10° W 21:58:13 31° NW 22:03:14 10° NNE
Cosmos 2278 Rocket 4.2 21:56:00 10° WNW 21:58:20 13° W 22:00:40 10° WSW
Gbstr 26 Del rocket 3.1 21:55:23 10° W 21:58:55 40° SSW 22:02:42 10° SE
Cosmos 2333 Rocket 3.9 21:55:41 10° W 22:00:43 31° NW 22:05:46 10° NNE
ISS -3.6 21:59:17 10° W 22:02:31 48° S 22:05:44 10° ESE
Okean 1 4.3 21:58:48 10° NNW 22:02:31 35° W 22:04:38 21° SW
Meteor 2-14 Rocket 4.4 21:57:37 10° NNW 22:03:44 90° WSW 22:08:49 15° S
PSLV R/B 3.5 21:59:31 10° NNE 22:03:50 80° WNW 22:06:34 21° SSW
Cosmos 1943 Rocket 2.1 22:01:05 10° NW 22:06:37 77° WSW 22:12:01 11° SSE
Lacrosse 5 2.7 22:02:40 10° WNW 22:07:04 30° SW 22:09:44 19° S
USA 32 4.1 22:01:49 10° N 22:07:07 84° E 22:11:19 16° S
ATLAS 5 CENTAUR R/B 2.5 22:02:00 10° NW 22:07:29 55° SW 22:13:43 10° SSE
SAR-Lupe-1 4.3 22:06:51 16° SSE 22:09:38 68° ENE 22:13:13 10° N
Cosmos 1908 Rocket 4.4 22:07:36 15° SSE 22:10:53 42° E 22:15:05 10° NNE
NOSS 3-2 (C) 4.0 22:06:30 10° NW 22:13:46 84° SW 22:21:59 10° SE
Cosmos 1536 3.7 22:15:50 16° SSE 22:18:47 43° E 22:22:38 10° NNE
Lacrosse 5 rocket 3.0 22:17:29 10° W 22:20:36 18° SW 22:21:13 18° SW
BREEZE-M DEB (TANK) 4.2 22:17:52 10° WSW 22:20:37 26° S 22:26:44 10° SE
Resurs 1-4 Rocket 3.0 22:19:48 10° NNE 22:24:51 41° E 22:29:31 12° SSE
Cosmos 2369 Rocket 2.3 22:20:57 10° NW 22:26:36 61° WSW 22:32:05 11° SSE
Okean 3 4.5 22:23:29 10° NNW 22:27:19 32° W 22:29:46 18° SW
Cosmos 1486 Rocket 4.2 22:23:30 17° SW 22:27:39 73° WNW 22:32:58 10° NNE
Meteor 1-23 Rocket 4.4 22:26:42 10° NNW 22:32:35 83° ENE 22:38:26 10° SSE
H-2A R/B 2.2 22:29:15 14° S 22:33:06 76° WSW 22:37:38 10° NNW
BREEZE-M DEB (TANK) 4.3 22:26:55 10° W 22:33:11 28° SSW 22:36:15 10° SE
ADEOS II 4.2 22:31:17 10° NE 22:35:05 20° E 22:38:52 10° SE
SeaSat 1 4.2 22:31:26 10° NNE 22:35:36 28° NW 22:39:45 10° W
Cosmos 1538 Rocket 4.2 22:30:33 10° NNW 22:35:52 74° ENE 22:41:06 10° SSE
USA 215 3.2 22:29:33 10° ESE 22:36:06 78° SSW 22:42:41 10° WNW
EXPRESS MD2 3.7 22:36:17 20° SSE 22:36:22 20° SSE 22:38:28 10° ESE
Meteor 1-13 Rocket 4.4 22:32:18 10° NNW 22:37:44 55° W 22:42:09 15° S
Cosmos 220 Rocket 4.0 22:33:31 10° NNW 22:38:00 72° WSW 22:42:23 10° SSE
Cosmos 1503 Rocket 4.0 22:34:39 17° SSW 22:38:45 85° ESE 22:44:07 10° NNE
Cosmos 1603 4.0 22:35:33 16° SSW 22:40:00 61° ESE 22:45:34 10° NE
Cosmos 1666 4.0 22:37:21 10° SSE 22:40:46 35° E 22:44:18 10° NNE
SL-4 R/B 2.3 22:36:10 10° W 22:40:51 62° S 22:45:14 10° ESE
Lacrosse 4 Rocket 2.0 22:36:58 13° SW 22:40:57 57° NW 22:45:20 10° NE
CZ-2D R/B 2.6 22:38:41 10° NNE 22:44:01 56° E 22:49:02 12° S
Cosmos 1782 Rocket 4.2 22:40:34 12° S 22:44:28 52° E 22:48:51 10° NNE
Iridium 96 4.1 22:44:53 18° S 22:47:03 78° E 22:49:54 10° N
Cosmos 2263 4.4 22:46:20 10° NW 22:51:51 54° WSW 22:57:17 10° S
Meteor 2-4 Rocket 4.5 22:47:00 10° NNW 22:52:21 39° W 22:56:40 14° SSW
SL-16 R/B 2.9 22:48:11 10° WSW 22:53:40 49° NW 22:59:11 10° NNE
NOSS 3-2 (A) 4.3 22:46:50 10° NW 22:53:50 47° SW 23:01:37 10° SSE
COSMOS 2455 3.5 22:49:11 10° WSW 22:55:04 52° NW 23:01:00 10° NE
Cosmos 968 Rocket 3.5 22:51:10 15° SSW 22:55:27 80° WNW 23:00:39 10° NNE
Sich 1 Rocket 4.1 22:52:58 12° S 22:57:12 61° E 23:01:44 10° NNE
Cosmos 1354 Rocket 4.1 22:53:06 15° SSW 22:57:32 78° WNW 23:02:53 10° NNE
Unknown 4.5 22:59:41 16° SSW 23:01:29 25° SSE 23:04:22 10° E
Cosmos 2074 Rocket 4.0 22:55:37 10° NNW 23:01:56 87° W 23:08:14 10° S
SL-16 R/B 2.7 22:56:42 10° S 23:02:48 58° WSW 23:08:56 10° NNW
IRS-1D 4.0 23:00:52 10° NNE 23:05:44 53° E 23:10:35 10° S
CENTAUR R/B 3.1 22:58:22 10° NW 23:06:05 70° SW 23:14:36 10° SSE
Cosmos 1340 4.3 23:02:57 10° SSE 23:06:16 29° E 23:09:35 10° NNE
ATLAS 3B R/B 2.7 23:02:24 10° NW 23:08:55 58° SW 23:15:30 10° SSE
Cosmos 2098 Rocket 4.1 23:07:14 10° NW 23:09:39 19° W 23:11:20 13° SW
Cosmos 2237 Rocket 4.1 23:08:01 10° W 23:12:36 25° NNW 23:17:11 10° NNE
Cosmos 1943 3.3 23:07:51 13° SSW 23:12:54 74° ESE 23:18:36 10° NE
Cosmos 1500 3.7 23:10:29 14° SW 23:13:30 46° WNW 23:17:13 10° N
Cosmos 1975 Rocket 3.2 23:09:52 10° NNW 23:14:08 56° W 23:18:20 10° S
NOSS 2-2 (E) 3.5 23:11:32 14° SW 23:14:44 66° SE 23:19:21 10° NE
AQUA 3.9 23:10:36 10° NNE 23:15:25 81° ESE 23:20:05 11° SSW
CZ-4B R/B 2.0 23:13:06 10° SSE 23:16:11 52° ENE 23:19:13 10° N
Cosmos 1025 Rocket 4.1 23:12:15 10° N 23:16:31 46° ENE 23:20:44 10° SSE
CZ-4C R/B 3.2 23:16:47 10° S 23:20:12 55° W 23:23:45 10° NNW
UNK 4.4 23:16:48 12° SSW 23:20:42 37° W 23:25:00 10° NNW
Cosmos 1066 Rocket 4.4 23:15:20 10° NNW 23:21:06 63° W 23:26:44 10° S
Unknown 3.8 23:21:30 14° SW 23:23:36 31° SSE 23:26:19 10° E
ATLAS 2AS CENTAUR R/B 3.2 23:17:02 11° SW 23:24:46 75° SE 23:32:47 10° NE
Meteor 1-11 Rocket 4.2 23:21:41 11° SW 23:26:50 50° WNW 23:32:25 10° N
deb Chang Zheng 4 3.6 23:23:42 10° NNE 23:28:01 86° ESE 23:32:17 10° SSW
NPP 3.8 23:24:18 10° NNE 23:29:41 72° WNW 23:35:03 10° SSW
Nadezhda 1 Rocket 4.3 23:23:45 10° S 23:30:08 74° E 23:36:31 10° NNE
NOSS 2-2 (D) 3.4 23:27:03 12° SW 23:30:33 73° SE 23:35:07 10° NE
IRS-1C 4.4 23:25:19 10° NNE 23:30:41 72° ESE 23:36:01 10° S
SL-08 R/B 3.5 23:29:10 10° S 23:33:46 56° W 23:38:28 10° NNW
Cosmos 1656 Rocket 4.0 23:29:15 10° NW 23:34:41 46° WSW 23:40:04 10° S
Landsat 5 3.8 23:30:55 10° S 23:35:19 56° WSW 23:39:37 10° NNW
ISS -2.5 23:36:10 10° W 23:38:44 21° SSW 23:41:19 10° SSE
NOSS 8 (E) 4.2 23:39:07 10° SW 23:42:13 87° NW 23:45:33 10° NE
NOSS 8 (H) 4.4 23:40:50 10° SW 23:43:52 65° SE 23:47:11 10° NE
Gbstr 26 Del rocket 4.5 23:42:54 10° WSW 23:45:02 14° SW 23:47:17 10° S
Cosmos 2154 Rocket 4.1 23:38:55 10° NNW 23:45:16 73° W 23:51:35 10° S
Okean 2 Rocket 3.1 23:40:58 10° SSW 23:45:27 85° W 23:49:56 10° N
Cosmos 2112 Rocket 4.2 23:41:12 10° NNW 23:46:37 85° ENE 23:51:56 10° SSE
Unknown 3.8 23:45:04 10° SW 23:48:20 41° SSE 23:51:37 10° E
SJ 16-02 3.9 23:46:39 10° SE 23:49:07 15° E 23:51:36 10° ENE
Cosmos 1943 Rocket 3.8 23:46:14 10° WNW 23:49:29 16° W 23:52:43 10° SW
Cosmos 1743 2.7 23:46:12 10° SSW 23:50:06 81° WNW 23:53:59 10° N
ATLAS 5 CENTAUR R/B 4.0 23:48:17 10° W 23:51:19 14° WSW 23:54:32 10° SW
Cosmos 1689 Rocket 2.0 23:48:21 10° SSE 23:51:20 88° W 23:54:20 10° NNW
Cosmos 1842 3.2 23:49:15 10° NNW 23:53:10 89° WSW 23:57:02 10° S
Cosmos 1536 4.4 23:52:08 10° WSW 23:55:25 24° WNW 23:58:44 10° N
